Zurück zum Katalog

DELTA 1 DEB

AktivLEO
NORAD 10706·DEBRIS·🇺🇸 United States

Gestartet Jul 29, 1976 von Vandenberg Space Force Base

Loading…

Nächste Überflüge (nächste 24 Stunden)

TLE

AktuellSource: Space-Track

Epoche: Sep 14, 2026, 03:00 UTC

1 10706U 76077AB  26257.12510123  .00000296  00000-0  10384-2 0  9993
2 10706 101.5283 122.6837 0394233 319.2195 197.0536 12.83381578330888

Verfolge DELTA 1 DEB in Echtzeit mit AllMySat

Download on the App Store